Starlink 34723

operational
NORAD ID: 64842 Int'l Des: 2025-152 Owner: SPXS Country: US Constellation: starlink
LEOCIRCULARRETROGRADESSO

Starlink 34723について

説明を読み込み中...

リアルタイム位置

3D地球を読み込み中...

次回通過

高度履歴

Altitude vs Time

uPlot chart will show altitude changes over time

軌道要素

1 64842U 25152A 26063.11009501 .00008051 00000-0 56116-3 0 9999
2 64842 97.6009 279.9437 0002330 82.5931 277.5561 15.05676229 34579
Epoch: Mar 4, 2026 • Age: 19 hours

現在のステータス

高度 558.5 km
速度 7.59 km/s
衛星直下点 60.44°N, 24.84°E
打ち上げ日 Jul 19, 2025
運用期間 0.6 years
タイプ internet

技術仕様

分類 Payload
質量 575.00 kg
乾燥質量 530.00 kg
総質量 575.00 kg
長さ 0.30 m
直径 4.10 m
スパン 29.00 m
形状 Box + pan
製造者 SPXS
バスタイプ Starlink V2MO
フェーズステータス In Orbit
所有者/国 SPXS/US

大規模コンステレーション

Loading constellations...